Flag for Croatia Weather past 2 weeks in Zagreb, Croatia

Now
55 °F

Light rain. Passing clouds.


Feels Like: 55 °F
Forecast: 53 / 68 °F
Wind: No wind

Location: Zagreb / Pleso


UV Index: 0 (Low)

Visibility: 4 mi


Pressure: 29.92 "Hg

Humidity: 100%

Dew point: 55 °F

Location of ZagrebLocation

Historic Weather in Zagreb

°F

Zagreb temperature yesterday

Maximum temperature yesterday: 66 °F (at 12:00 PM)
Minimum temperature yesterday: 46 °F (at 3:30 AM)
Average temperature yesterday: 57 °F

Past Weeks' High & Low Weather Summary

 TemperatureHumidityPressure
High72 °F (Apr 14, 2:00 PM)100% (Apr 13, 2:30 AM)30.15 "Hg (Apr 13, 2:30 AM)
Low36 °F (Apr 16, 4:30 AM)33% (Apr 14, 2:00 PM)29.68 "Hg (Apr 19, 4:00 PM)
Average53 °F75%29.95 "Hg
* Reported Apr 9 4:00 AM — Apr 24 4:30 AM, Zagreb, Weather by CustomWeather, © 2014

Note: Actual official high and low records may vary slightly from our data, if they occured in-between our weather recording intervals... More about our weather records

Advertising

Historic Weather Conditions — Data for Previous 24 hours

 ConditionsComfort  
Time TempWeatherWind HumidityBarometerVisibility
4:30 AM
Apr 24
55 °FPassing clouds.3 mph100%29.92 "Hg4 mi
4:00 AM55 °FLight rain. Passing clouds.No wind100%29.92 "Hg4 mi
3:30 AM57 °FLight rain. Passing clouds.3 mph94%29.95 "HgN/A
3:00 AM57 °FLight rain. Passing clouds.6 mph94%29.95 "HgN/A
2:30 AM55 °FLight rain. Passing clouds.5 mph100%29.95 "HgN/A
2:00 AM55 °FLight rain. Passing clouds.6 mph100%29.95 "HgN/A
1:30 AM57 °FLight rain. Passing clouds.2 mph94%29.95 "HgN/A
1:00 AM57 °FLight rain. Passing clouds.2 mph94%29.98 "HgN/A
12:30 AM57 °FLight rain. Partly cloudy.3 mph94%29.98 "HgN/A
12:00 AM57 °FSprinkles. Passing clouds.6 mph94%29.98 "HgN/A
11:30 PM
Apr 23
57 °FSprinkles. Passing clouds.1 mph94%29.98 "HgN/A
11:00 PM57 °FSprinkles. Passing clouds.3 mph94%29.98 "HgN/A
10:30 PM57 °FSprinkles. Passing clouds.6 mph94%29.98 "HgN/A
10:00 PM57 °FRain showers. Passing clouds.6 mph94%30.01 "Hg5 mi
9:30 PM57 °FRain. Passing clouds.1 mph94%30.01 "HgN/A
9:00 PM57 °FLight rain. Passing clouds.No wind94%30.01 "HgN/A
8:30 PM59 °FSprinkles. Scattered clouds.5 mph88%29.98 "HgN/A
8:00 PM59 °FLight rain. More clouds than sun.3 mph94%29.98 "HgN/A
7:30 PM59 °FPassing clouds.3 mph94%29.98 "HgN/A
7:00 PM61 °FSprinkles. Passing clouds.2 mph88%29.98 "HgN/A
6:30 PM61 °FScattered showers. Passing clouds.2 mph88%29.98 "HgN/A
6:00 PM61 °FScattered showers. Passing clouds.3 mph88%29.98 "HgN/A
5:30 PM61 °FSprinkles. Passing clouds.6 mph88%29.98 "Hg5 mi
5:00 PM63 °FPassing clouds.6 mph83%29.98 "HgN/A
4:30 PM63 °FSprinkles. Passing clouds.6 mph83%30.01 "HgN/A
4:00 PM66 °FPassing clouds.7 mph68%29.98 "HgN/A
3:30 PM66 °FPassing clouds.6 mph68%30.01 "HgN/A
3:00 PM66 °FPassing clouds.8 mph68%30.01 "HgN/A
2:30 PM66 °FPassing clouds.9 mph68%30.01 "HgN/A
2:00 PM66 °FPassing clouds.9 mph68%30.01 "HgN/A
1:30 PM66 °FPassing clouds.9 mph68%30.04 "HgN/A
1:00 PM66 °FPassing clouds.8 mph68%30.04 "HgN/A
12:30 PM66 °FPassing clouds.9 mph68%30.04 "HgN/A
12:00 PM66 °FPassing clouds.1 mph73%30.04 "HgN/A
11:30 AM64 °FPassing clouds.1 mph78%30.07 "HgN/A
11:00 AM63 °FPassing clouds.1 mph77%30.07 "HgN/A
10:30 AM61 °FScattered clouds.2 mph83%30.07 "HgN/A
10:00 AM59 °FPassing clouds.2 mph82%30.04 "HgN/A
9:30 AM59 °FPassing clouds.2 mph82%30.04 "HgN/A
9:00 AM57 °FPassing clouds.No wind88%30.04 "HgN/A
8:30 AM55 °FPassing clouds.No wind88%30.04 "HgN/A
8:00 AM52 °FPassing clouds.No wind94%30.04 "HgN/A
7:30 AM50 °FPassing clouds.No wind94%30.04 "HgN/A
7:00 AM48 °FPassing clouds.No wind94%30.04 "Hg4 mi
6:30 AM46 °FLight fog.No wind93%30.04 "Hg2 mi
6:00 AM46 °FFog.1 mph100%30.01 "Hg4 mi
Weather by CustomWeather, © 2014

See weather overview